CAPE
33 28 109 336 221 360 90 58 50 134 90 15 2 26 43 13 51 0 0 13 0 58 156 423 1043 1473 1530 1582 1832 1753 1500 1639 1886 1692 1557 1626 1609 1494 1280 1377 1589 1553 1481 1559 1515 1286 1268 1289 1420
96 240 329 293 257 76 52 56 62 124 180 56 64 15 122 31 13 6 0 53 0 0 161 509 1059 1440 1768 1910 1865 1595 1562 1723 1671 1742 1609 1640 1541 1400 1375 1532 1459 1456 1760 1625 1476 1275 1155 1148 1094
250 225 449 547 280 12 31 73 167 172 151 130 136 94 194 229 37 2 2 1 0 38 455 816 1286 1566 1914 1935 1736 1654 1618 1639 1685 1575 1604 1609 1440 1451 1665 1360 1568 1449 1540 1540 1546 1340 1278 1109 987
524 603 549 115 104 121 96 126 155 166 145 150 156 109 118 276 126 88 155 2 1 551 556 719 1477 1747 1746 1660 1584 1611 1633 1650 1678 1605 1543 1406 1480 1584 1762 1689 1694 1412 1449 1424 1385 1222 1162 1131 1062
508 416 480 501 121 78 132 184 260 213 293 138 154 137 111 110 183 234 23 75 279 494 701 868 1513 1664 1566 1526 1548 1626 1621 1731 1609 1517 1410 1413 1464 1487 1604 1849 1797 1513 1425 1388 1339 1292 1272 1286 1334
654 449 34 18 60 74 80 197 181 240 299 232 236 183 225 219 313 150 199 281 455 580 470 923 1560 1576 1539 1499 1594 1649 1702 1693 1584 1570 1471 1457 1445 1462 1514 1677 1644 1567 1336 1329 1258 1124 1217 1295 1357
666 505 111 27 66 152 132 153 137 187 172 327 293 358 241 467 372 84 219 260 348 458 622 650 807 1234 1623 1536 1537 1495 1584 1645 1622 1622 1540 1509 1473 1399 1287 1368 1458 1494 1432 1386 1389 1251 1188 1222 1291
1009 358 110 108 23 54 68 146 101 190 214 354 445 400 329 458 314 212 197 240 358 260 142 72 284 647 792 944 1420 1458 1514 1564 1614 1587 1547 1377 1185 1053 957 812 1041 1204 1357 1447 1346 1280 1315 1351 1262
805 378 110 33 4 59 76 45 53 125 195 279 353 424 420 360 371 177 202 221 253 149 7 2 142 478 705 706 1081 1392 1514 1572 1439 1267 1025 1161 1614 1715 1569 889 765 933 989 1105 1120 1116 992 899 1016
318 272 48 15 14 21 146 38 2 57 132 184 452 510 408 402 261 368 327 281 318 153 35 39 115 293 422 243 614 649 530 476 662 1020 941 981 1562 1347 1387 734 757 867 855 893 720 1102 1166 776 622
139 80 39 15 31 57 66 86 41 30 80 212 490 504 414 592 578 519 513 385 278 211 71 90 196 278 253 255 340 466 311 515 842 1519 1501 1561 1449 1137 886 1149 806 1034 851 690 1018 619 1191 581 711
50 134 133 52 41 218 103 82 116 64 39 242 394 550 477 568 620 717 699 607 516 224 125 85 222 310 250 424 292 320 238 465 589 973 1594 1794 1588 1418 1620 1125 1261 1067 1003 912 853 818 813 699 446
19 120 210 195 97 71 226 264 353 245 52 124 440 541 537 600 588 587 593 488 429 263 133 123 225 502 521 594 264 340 233 205 306 696 1220 1535 1278 1421 1288 1176 1004 1255 991 775 823 973 664 298 424
26 80 212 43 56 26 35 95 112 492 211 438 433 586 592 675 621 575 555 424 277 196 188 219 329 610 739 670 634 351 356 258 290 364 699 1325 1336 1274 1525 1325 1054 1292 992 662 670 1073 593 885 548
31 19 105 115 9 0 4 39 99 380 474 567 571 535 652 701 611 501 418 386 227 226 250 289 466 689 816 818 888 697 426 361 219 349 776 1178 1401 1452 1748 1095 1029 1044 1218 1412 1178 973 1139 505 184
0 1 2 0 0 0 0 26 10 117 675 729 668 627 505 573 556 467 409 380 282 230 304 329 341 530 779 768 843 669 393 273 255 242 666 1125 1382 1716 1494 1250 1267 1499 1229 772 947 620 652 786 99
0 0 0 3 0 2 0 2 3 53 432 777 823 755 566 449 508 469 379 313 275 315 390 453 447 428 677 893 809 701 455 483 252 180 431 1276 1367 1612 1903 1569 1524 1862 1281 685 694 515 216 10 42
0 0 0 0 4 1 5 0 16 63 277 488 889 872 748 510 384 467 395 302 301 363 515 649 581 759 971 960 1087 706 422 465 351 133 313 1127 1407 1598 1924 1433 1647 1470 1314 978 962 903 34 19 0
0 0 1 45 12 1 20 39 22 55 209 392 793 902 862 717 462 344 423 328 293 339 481 791 841 1028 1025 920 775 562 327 326 206 93 276 829 1277 1504 2069 1849 1722 1458 1215 1393 669 910 239 12 0
0 0 6 19 9 0 34 28 44 66 185 375 648 804 848 794 658 352 406 346 247 349 545 916 1142 1478 1367 1087 966 521 410 128 87 6 545 955 1555 1922 2235 2157 1484 1624 1442 1641 1013 792 431 10 0
0 0 0 5 13 0 1 7 46 51 99 381 577 624 743 850 837 623 396 399 326 404 786 1027 1404 1607 1572 1246 1143 887 483 240 30 36 391 1036 1619 1970 2385 1819 1531 1562 1678 1589 1684 1020 398 228 0
0 0 0 0 0 6 0 3 2 14 60 122 466 604 645 778 872 859 544 416 376 449 724 1246 1722 1914 1910 1729 970 772 283 35 3 31 131 998 1681 1872 2160 1536 1439 1867 1640 1631 1647 1146 1173 182 2
0 0 0 0 0 0 1 11 11 10 23 47 71 354 554 644 846 904 830 464 329 410 565 1090 1968 2168 1931 1994 1324 919 690 21 70 81 289 982 1927 1942 1744 2205 2219 2213 1854 1528 1660 1622 1585 824 136
0 0 0 0 0 0 0 0 0 1 23 31 36 48 238 541 716 917 924 646 368 303 462 877 1755 2244 2421 2381 1834 1810 920 516 278 222 475 890 1083 1847 1978 1905 2333 2069 2038 1608 1734 1887 1923 1453 325
0 0 0 0 0 0 0 0 0 0 1 15 15 51 62 367 752 876 893 793 529 397 620 894 1740 2398 2635 2609 2333 1959 1650 1173 1684 1149 654 848 787 689 1554 1878 1950 1991 2247 2049 2019 2499 2060 1796 1258
0 0 0 0 0 0 0 0 0 0 0 5 7 42 55 94 607 869 982 917 756 578 799 887 1654 2500 2793 2631 2603 2592 2318 1694 1428 1421 1050 1026 808 636 1044 2304 2120 2169 2272 2304 2489 2233 2108 1717 1597
0 0 0 0 0 0 0 0 0 0 0 0 0 2 11 20 469 746 913 1041 1081 818 1005 1150 1600 2403 2841 2723 2800 2875 2809 2302 1623 1631 1849 1875 1509 943 1292 1705 2171 2133 2166 2285 2453 1849 2316 1685 1684
0 0 0 0 0 0 0 0 0 0 0 0 0 0 0 1 284 742 839 1054 1276 1155 1044 1341 1671 2451 2872 2705 2892 2967 3048 2954 2328 2202 2197 1895 1914 1893 1860 1631 1726 2176 2257 2350 2461 1855 2058 1973 1381
0 0 0 0 0 0 0 0 0 0 0 0 0 0 0 0 143 638 871 987 1279 1371 1341 1435 1692 2247 2759 2914 2882 2839 2950 2870 2989 2545 2556 2454 2440 2719 1924 2258 2016 2344 2446 2433 2487 2103 1882 2183 1720
0 0 0 0 0 0 0 0 0 0 0 0 0 0 0 0 15 458 589 911 1036 1308 1514 1639 1790 1746 2448 2446 2838 2854 2890 2824 2914 2949 2701 2830 2789 2681 2947 2774 2500 2603 2476 2520 2630 2439 1459 2165 2130
CIN
-145 -87 -21 -0 -0 -1 -1 -1 -16 -25 -10 -9 -5 -4 -21 -16 -41 -25 -0 -57 -0 -27 -6 -1 -0 -0 -0 -0 -0 -0 -3 -0 -0 -0 -0 -0 -0 -0 -0 -1 -0 -0 -0 -0 -0 -1 -0 -0 -0
-59 -3 -1 -2 -0 -11 -2 -14 -9 -9 -11 -13 -11 -7 -8 -38 -103 -34 -0 -11 -0 -0 -3 -0 -1 -0 -0 -0 -0 -1 -0 -0 -0 -0 -0 -0 -0 -0 -2 -0 -0 -0 -0 -0 -0 -6 -4 -4 -2
-30 -24 -4 -1 -4 -33 -2 -37 -5 -8 -8 -9 -5 -20 -4 -0 -45 -0 -106 -2 -0 -18 -1 -3 -0 -0 -0 -0 -0 -0 -0 -0 -0 -0 -0 -0 -0 -0 -0 -2 -0 -2 -1 -1 -0 -1 -2 -8 -5
-4 -7 -12 -79 -19 -1 -1 -3 -6 -8 -4 -2 -3 -8 -8 -0 -11 -20 -13 -86 -6 -1 -1 -17 -0 -0 -0 -0 -0 -0 -0 -0 -0 -0 -0 -0 -0 -0 -0 -0 -0 -4 -6 -6 -4 -5 -9 -8 -11
-36 -10 -3 -9 -3 -2 -8 -3 -2 -20 -2 -3 -36 -11 -19 -6 -2 -2 -52 -13 -2 -2 -0 -2 -0 -0 -0 -0 -0 -0 -0 -0 -0 -0 -1 -0 -0 -0 -0 -0 -0 -1 -7 -9 -9 -6 -7 -9 -8
-4 -2 -26 -29 -2 -7 -12 -4 -5 -2 -1 -6 -41 -55 -8 -7 -1 -2 -6 -1 -1 -5 -1 -1 -0 -0 -0 -0 -0 -0 -0 -0 -0 -0 -0 -0 -0 -5 -4 -1 -3 -5 -15 -17 -19 -19 -17 -18 -15
-4 -3 -45 -68 -1 -2 -11 -2 -1 -2 -1 -2 -32 -64 -45 -2 -0 -12 -2 -0 -0 -2 -1 -8 -2 -1 -0 -0 -0 -1 -0 -0 -0 -0 -0 -2 -8 -18 -21 -20 -16 -14 -12 -13 -16 -20 -22 -27 -23
-2 -6 -10 -12 -4 -7 -44 -11 -8 -1 -4 -3 -21 -58 -64 -23 -4 -5 -2 -0 -1 -4 -9 -19 -14 -9 -2 -5 -0 -3 -3 -1 -0 -0 -7 -25 -34 -35 -34 -46 -35 -29 -19 -13 -19 -28 -24 -29 -41
-1 -2 -16 -13 -35 -16 -29 -5 -4 -3 -20 -1 -3 -59 -75 -52 -11 -16 -14 -10 -11 -1 -1 -3 -7 -2 -0 -0 -4 -6 -3 -1 -8 -17 -39 -43 -6 -16 -14 -30 -41 -35 -30 -27 -27 -26 -8 -9 -37
-24 -10 -57 -8 -10 -17 -5 -3 -1 -16 -3 -11 -2 -27 -70 -49 -39 -17 -25 -21 -14 -3 -3 -3 -2 -1 -0 -1 -21 -8 -11 -11 -8 -1 -31 -29 -9 -3 -5 -22 -41 -39 -29 -26 -28 -19 -22 -44 -59
-13 -11 -105 -9 -22 -6 -18 -43 -1 -2 -24 -2 -2 -43 -50 -22 -17 -15 -11 -13 -3 -4 -10 -4 -1 -2 -2 -1 -12 -1 -0 -1 -0 -1 -0 -2 -6 -3 -29 -3 -11 -13 -27 -40 -16 -93 -23 -35 -8
-36 -4 -15 -33 -35 -4 -5 -19 -21 -2 -2 -5 -16 -35 -47 -9 -2 -7 -6 -2 -2 -5 -7 -6 -3 -1 -4 -1 -1 -2 -2 -1 -1 -1 -3 -0 -2 -2 -2 -24 -16 -34 -23 -1 -1 -1 -1 -17 -2
-38 -12 -1 -4 -6 -25 -2 -1 -67 -4 -3 -15 -25 -44 -28 -3 -1 -4 -3 -3 -4 -2 -5 -6 -1 -1 -1 -1 -1 -2 -2 -2 -1 -2 -2 -1 -2 -2 -5 -1 -8 -7 -2 -2 -2 -0 -3 -21 -7
-17 -9 -7 -3 -6 -3 -2 -16 -25 -4 -7 -11 -34 -43 -39 -2 -2 -2 -2 -3 -2 -5 -5 -3 -3 -2 -1 -1 -0 -1 -1 -2 -1 -2 -2 -8 -2 -3 -3 -3 -2 -4 -13 -27 -3 -5 -12 -14 -14
-7 -5 -3 -3 -3 -0 -2 -4 -4 -3 -8 -16 -43 -44 -29 -13 -2 -2 -1 -3 -5 -7 -3 -3 -2 -2 -5 -3 -1 -1 -0 -0 -1 -0 -1 -1 -5 -7 -5 -1 -3 -1 -1 -7 -2 -10 -2 -31 -2
-0 -4 -2 -0 -0 -0 -0 -3 -7 -3 -4 -12 -29 -46 -50 -33 -12 -4 -2 -2 -4 -10 -7 -6 -4 -7 -10 -8 -7 -3 -0 -4 -2 -2 -1 -10 -6 -1 -10 -8 -7 -9 -3 -0 -2 -1 -17 -14 -56
-0 -0 -0 -5 -0 -4 -0 -2 -6 -4 -4 -3 -10 -29 -46 -47 -19 -22 -15 -12 -7 -16 -17 -13 -9 -10 -13 -8 -8 -13 -9 -6 -2 -5 -1 -7 -7 -1 -3 -5 -7 -12 -12 -1 -1 -5 -15 -3 -20
-0 -0 -2 -0 -3 -1 -4 -0 -30 -4 -3 -2 -1 -5 -30 -46 -54 -35 -31 -28 -11 -18 -23 -20 -16 -1 -3 -5 -5 -7 -16 -18 -9 -13 -0 -1 -3 -1 -1 -1 -2 -3 -2 -6 -22 -6 -25 -39 -0
-0 -0 -1 -6 -23 -1 -5 -5 -3 -4 -7 -6 -2 -5 -20 -35 -44 -35 -37 -42 -35 -25 -33 -33 -28 -12 -9 -12 -16 -22 -41 -31 -36 -38 -9 -0 -2 -0 -1 -2 -3 -6 -9 -5 -0 -4 -11 -2 -0
-0 -0 -5 -4 -7 -0 -3 -4 -4 -5 -5 -3 -3 -9 -16 -6 -15 -40 -50 -44 -68 -63 -58 -41 -31 -9 -13 -16 -11 -25 -26 -44 -64 -27 -3 -2 -0 -0 -0 -4 -5 -10 -12 -2 -0 -8 -8 -2 -0
-0 -0 -0 -2 -4 -0 -0 -5 -6 -7 -2 -3 -3 -4 -3 -22 -28 -59 -60 -60 -58 -59 -57 -58 -34 -17 -19 -7 -9 -12 -27 -54 -36 -45 -14 -1 -0 -0 -0 -4 -12 -2 -3 -9 -0 -2 -8 -4 -0
-0 -0 -0 -0 -0 -7 -0 -5 -7 -6 -5 -6 -2 -3 -3 -7 -15 -43 -72 -64 -64 -80 -68 -38 -31 -12 -14 -10 -19 -36 -91 -126 -55 -114 -63 -2 -1 -1 -0 -1 -12 -3 -2 -3 -4 -0 -2 -4 -1
-0 -0 -0 -0 -0 -0 -2 -4 -5 -8 -6 -6 -3 -5 -4 -6 -16 -36 -68 -70 -75 -66 -70 -50 -8 -1 -8 -16 -38 -50 -58 -135 -124 -113 -45 -5 -4 -1 -0 -1 -1 -1 -8 -0 -7 -1 -6 -6 -11
-0 -0 -0 -0 -0 -0 -0 -0 -0 -1 -4 -4 -4 -2 -3 -3 -32 -41 -50 -53 -81 -86 -54 -42 -26 -16 -2 -1 -26 -11 -66 -75 -69 -84 -27 -6 -1 -1 -0 -1 -0 -2 -1 -0 -0 -0 -0 -7 -54
-0 -0 -0 -0 -0 -0 -0 -0 -0 -0 -7 -8 -5 -4 -4 -14 -13 -32 -37 -66 -81 -112 -86 -69 -44 -16 -4 -0 -10 -33 -45 -61 -4 -10 -30 -5 -4 -16 -3 -6 -2 -2 -2 -1 -0 -0 -0 -6 -26
-0 -0 -0 -0 -0 -0 -0 -0 -0 -0 -0 -4 -4 -5 -6 -4 -9 -23 -37 -63 -74 -91 -102 -104 -85 -47 -16 -25 -25 -21 -28 -39 -46 -24 -19 -21 -5 -11 -1 -17 -4 -1 -1 -1 -0 -0 -1 -17 -31
-0 -0 -0 -0 -0 -0 -0 -0 -0 -0 -0 -0 -0 -4 -2 -8 -6 -30 -38 -46 -80 -104 -114 -141 -114 -109 -73 -77 -52 -35 -32 -40 -50 -46 -21 -2 -12 -4 -2 -1 -1 -0 -0 -1 -0 -1 -1 -20 -42
-0 -0 -0 -0 -0 -0 -0 -0 -0 -0 -0 -0 -0 -0 -0 -4 -17 -19 -32 -40 -73 -108 -136 -140 -147 -143 -116 -91 -74 -57 -50 -46 -44 -29 -24 -24 -2 -3 -3 -7 -3 -2 -0 -0 -0 -4 -3 -21 -64
-0 -0 -0 -0 -0 -0 -0 -0 -0 -0 -0 -0 -0 -0 -0 -0 -31 -14 -21 -42 -75 -90 -111 -153 -154 -134 -122 -98 -86 -74 -72 -63 -45 -34 -29 -25 -24 -1 -17 -4 -16 -4 -0 -0 -0 -2 -5 -23 -68
-0 -0 -0 -0 -0 -0 -0 -0 -0 -0 -0 -0 -0 -0 -0 -0 -42 -11 -18 -31 -47 -83 -97 -131 -157 -181 -164 -155 -124 -122 -100 -90 -77 -68 -43 -33 -27 -27 -7 -7 -15 -9 -3 -0 -0 -3 -42 -21 -51
Wind_Speed
20 21 20 18 16 16 15 19 8 11 12 11 5 7 7 8 11 6 20 38 35 32 36 34 34 33 32 31 30 26 23 25 26 3 4 4 4 5 5 7 7 5 5 8 18 21 22 22 22
19 19 20 17 16 15 16 17 15 17 10 9 9 9 9 8 11 17 30 38 35 38 31 29 32 31 31 29 26 23 24 25 13 6 4 5 5 5 5 5 7 7 9 11 19 22 22 21 21
22 22 16 18 11 16 16 17 14 10 8 8 10 10 9 7 19 26 32 34 32 31 28 26 31 30 28 24 25 23 23 22 8 4 6 6 5 6 5 6 7 8 10 11 14 20 21 20 20
23 20 18 11 17 16 15 12 15 14 10 11 10 11 8 8 23 13 33 30 34 28 30 27 30 27 25 25 22 22 25 14 6 11 15 9 12 8 5 5 6 7 7 7 6 23 23 22 21
23 19 15 16 14 14 14 10 12 18 14 11 10 11 12 14 20 28 26 35 27 30 26 28 28 25 24 22 20 26 27 14 12 16 16 17 15 12 9 8 7 8 15 16 16 17 19 20 20
19 20 21 13 14 14 13 11 12 12 11 12 14 14 8 13 25 29 33 31 28 28 28 25 26 23 22 19 23 28 23 16 17 17 19 18 18 16 14 13 14 15 15 15 15 16 17 19 20
24 20 21 15 14 15 14 12 14 15 15 15 15 17 14 20 27 31 32 27 27 30 26 27 27 23 21 24 29 27 22 21 21 21 20 19 19 17 16 16 16 16 17 18 18 17 19 21 21
20 20 18 14 12 16 13 14 14 15 16 15 14 15 22 20 29 32 28 27 28 32 24 27 27 27 26 30 29 26 24 23 22 22 20 20 20 20 20 21 20 18 18 19 19 18 18 19 22
22 21 18 11 14 15 17 15 13 13 17 14 12 16 19 23 31 28 26 29 34 29 28 29 28 27 30 31 28 25 24 23 22 22 22 22 19 21 23 19 19 19 19 19 18 18 19 16 18
26 14 16 10 10 13 14 16 14 15 17 16 16 17 21 27 22 24 24 29 33 29 30 31 29 30 32 31 29 26 25 25 24 23 21 16 19 17 14 20 19 18 18 17 17 14 18 19 18
27 19 23 11 13 11 13 15 17 15 16 16 17 21 23 23 20 19 25 29 30 29 31 31 29 31 32 31 29 27 25 25 22 21 20 17 13 19 19 19 19 17 18 16 16 16 15 14 19
31 26 23 9 10 14 10 16 14 15 14 14 15 19 22 22 21 19 23 28 31 28 31 31 29 33 33 29 29 27 25 23 23 23 20 18 17 17 20 18 18 18 13 12 11 13 7 16 15
27 29 13 15 12 12 14 11 11 13 14 15 15 18 20 20 18 18 22 26 28 28 32 31 31 34 33 29 29 27 25 24 23 22 22 20 18 18 11 15 17 16 14 15 15 16 15 9 10
8 19 9 18 5 6 6 7 10 12 14 16 17 18 20 20 19 16 17 20 26 29 32 33 33 35 33 32 28 27 26 25 23 23 22 21 18 17 16 15 15 11 16 7 17 18 15 15 16
24 16 6 7 12 9 7 6 5 11 14 16 17 18 19 21 18 16 17 16 24 29 32 34 35 35 35 33 31 29 27 26 24 23 22 22 20 18 16 16 15 15 10 14 15 13 16 13 14
18 29 12 11 4 3 4 9 9 11 14 16 17 18 18 20 18 17 19 20 21 29 33 36 35 34 35 34 32 30 28 27 25 23 17 21 21 19 18 15 13 17 13 13 14 12 14 13 17
17 14 17 10 11 4 4 8 7 10 13 15 16 17 16 18 21 22 26 29 26 29 31 36 36 36 35 34 32 31 29 28 26 25 22 13 21 19 17 15 7 15 14 13 15 13 13 17 15
14 17 11 19 7 8 7 14 5 6 11 14 16 16 17 19 22 26 33 31 34 27 28 37 38 37 35 33 33 31 30 29 28 26 24 7 20 19 16 16 14 13 13 14 15 11 17 15 15
37 20 34 13 10 8 10 8 4 1 4 13 15 17 19 20 24 26 30 33 35 30 30 35 38 38 36 36 34 33 30 27 26 26 24 20 22 18 17 17 13 13 14 15 16 16 17 17 16
45 40 23 29 22 12 8 9 11 2 4 11 15 18 19 18 20 28 28 33 36 36 34 34 38 39 39 37 35 33 31 27 25 24 14 23 21 19 18 19 13 14 13 14 15 15 15 17 16
37 34 29 32 20 17 23 37 24 8 2 9 14 16 19 21 21 24 29 36 37 37 35 37 39 40 39 38 35 34 32 31 29 27 21 21 23 21 19 16 17 14 15 14 16 16 15 15 16
24 30 31 29 30 22 14 41 27 10 7 11 13 16 20 20 19 20 26 34 38 37 33 38 36 41 39 39 36 35 33 30 28 24 21 17 15 20 17 17 15 15 16 13 15 15 15 15 17
43 33 28 38 39 40 37 29 40 22 28 21 18 16 17 18 16 20 24 29 34 34 33 34 29 38 39 37 39 32 34 30 27 27 19 16 6 15 18 15 14 14 17 15 17 15 16 16 15
37 34 34 26 38 53 31 30 43 39 19 20 19 15 14 16 17 19 17 16 27 31 30 29 29 33 34 29 34 37 29 35 30 17 11 14 16 9 17 15 12 13 16 17 15 16 16 17 16
20 16 17 24 25 43 24 34 40 23 15 13 15 16 13 11 16 16 16 19 23 31 29 27 27 30 29 29 28 34 30 30 35 10 17 8 11 11 11 14 10 11 14 18 17 15 17 16 17
23 26 19 22 26 43 22 37 41 34 31 27 13 15 14 10 14 20 21 20 21 26 27 28 24 27 28 29 28 24 24 23 24 14 10 10 8 8 3 9 9 12 13 15 16 17 17 16 18
20 39 34 42 17 39 22 36 47 34 21 24 24 17 13 11 13 19 22 24 23 25 26 28 26 27 28 28 25 24 23 23 18 16 13 7 8 7 3 4 7 10 13 13 14 18 12 22 17
49 21 31 46 45 36 39 30 29 27 27 22 19 19 20 16 12 15 18 21 21 26 27 28 30 29 28 27 25 22 21 20 18 13 13 12 8 7 4 5 6 9 10 12 12 14 12 12 16
32 39 28 45 44 41 34 32 37 17 16 22 20 27 29 16 13 15 15 17 18 22 28 29 30 26 26 25 23 23 23 23 22 20 16 13 11 9 11 6 7 8 10 11 11 14 10 10 14
35 36 26 44 42 44 35 21 18 14 15 10 16 17 17 13 15 14 14 14 16 26 29 30 26 29 26 28 27 28 26 26 25 25 23 18 17 14 10 9 9 9 9 10 12 12 17 10 13
Wind_Direction
114 123 119 143 156 128 64 73 248 338 347 16 302 284 358 312 277 9 102 152 122 118 127 127 123 119 115 112 107 94 85 92 129 354 246 244 264 298 314 337 338 245 268 195 148 121 109 105 100
112 112 155 181 167 338 35 42 17 76 14 24 358 27 2 354 10 92 114 142 123 132 121 113 122 115 114 108 97 88 88 93 51 8 333 240 284 277 263 289 335 328 339 349 40 86 96 98 80
138 148 199 171 260 18 16 57 51 9 5 324 3 29 293 310 78 109 118 119 122 123 118 110 121 116 107 96 96 88 86 84 32 278 232 242 254 245 255 304 329 333 344 348 360 49 63 61 55
144 177 197 234 118 16 17 12 48 42 1 347 27 4 2 36 101 116 122 119 128 122 124 115 122 111 103 100 90 89 95 60 227 202 185 212 193 217 278 279 304 320 316 305 234 98 83 82 88
171 189 185 284 42 5 25 357 22 78 45 22 17 33 58 76 97 117 117 129 118 128 116 119 119 110 104 97 89 106 122 193 200 185 181 174 174 190 202 208 218 199 155 148 142 135 122 112 106
179 187 8 192 25 24 18 3 350 349 353 24 49 72 43 86 114 121 125 123 121 121 120 115 116 108 104 93 101 143 170 192 183 181 171 168 164 169 177 179 170 161 157 153 148 140 130 120 108
204 234 227 151 19 36 28 358 9 40 48 54 72 73 82 106 117 124 128 119 121 128 119 122 121 111 104 110 148 163 179 175 172 166 165 164 162 163 166 164 160 159 151 137 133 134 123 109 103
219 228 248 341 8 40 32 16 29 53 53 68 68 77 110 112 122 126 120 123 125 137 117 124 123 125 123 143 159 170 174 173 170 168 169 165 160 155 152 145 145 152 143 134 125 125 127 119 103
196 228 277 324 329 55 71 48 8 34 80 63 354 90 110 117 125 123 120 130 150 130 129 132 131 130 141 152 166 176 176 177 174 170 168 162 168 154 133 152 150 144 139 133 132 127 120 133 121
192 304 287 326 61 32 53 46 59 74 88 69 73 91 114 124 122 124 125 135 151 136 138 141 137 139 154 159 169 174 176 174 173 170 173 171 173 168 184 138 149 148 145 143 136 144 119 117 121
198 273 198 319 302 294 64 55 75 72 96 91 96 114 124 128 129 127 132 137 142 140 143 145 139 148 162 168 173 180 179 177 182 181 185 187 206 169 138 143 133 151 66 158 128 108 130 141 119
216 239 211 341 319 254 26 92 65 83 85 94 100 122 131 135 136 133 137 144 152 141 149 147 144 160 170 183 181 182 185 189 182 175 188 187 187 184 144 141 137 61 194 122 181 140 172 133 136
189 236 279 287 307 299 288 343 75 66 77 93 106 126 137 137 137 137 139 145 148 147 155 154 153 173 184 192 185 192 192 190 181 178 170 190 173 177 254 186 105 130 132 97 112 102 112 350 40
278 243 295 272 323 348 3 11 85 83 98 104 112 130 142 145 143 142 144 144 148 153 158 161 162 173 187 189 198 201 190 188 195 176 162 185 203 196 197 193 154 54 28 171 74 51 106 97 47
195 274 215 255 287 308 322 325 105 100 113 117 121 125 143 151 149 151 150 150 150 155 161 168 174 175 186 187 195 197 192 197 181 191 186 184 194 193 217 175 153 125 148 114 85 113 24 193 91
184 195 190 182 211 269 316 156 142 128 129 132 132 132 137 152 155 155 154 153 153 157 164 175 176 174 181 188 189 196 201 192 198 181 134 166 175 194 168 165 139 67 151 165 115 161 93 154 68
184 191 188 203 197 197 170 241 81 128 141 143 142 141 142 148 157 158 160 162 158 162 163 175 180 180 178 187 191 195 200 204 199 193 174 118 166 161 179 154 159 93 154 146 114 136 155 76 96
198 195 205 183 217 212 194 170 81 124 145 153 152 149 150 152 159 162 169 167 172 162 162 178 185 191 182 184 198 198 201 200 202 192 185 81 167 164 156 170 120 171 140 102 113 188 80 112 104
240 250 244 208 258 212 198 183 227 1 146 159 156 157 158 158 158 161 168 170 174 167 168 175 183 186 185 189 192 197 190 182 185 189 183 162 183 160 163 178 123 122 176 56 94 109 98 95 116
234 242 248 250 253 259 259 259 281 264 175 163 160 161 161 157 156 165 166 172 177 176 174 174 184 190 194 195 202 197 195 185 178 178 147 177 170 171 168 183 126 133 61 105 115 141 133 99 122
242 244 250 249 255 260 265 238 238 278 232 172 167 164 164 163 162 163 169 178 179 178 175 179 184 190 189 198 197 206 207 218 204 190 169 170 182 178 172 157 175 141 152 119 118 125 142 104 112
208 242 250 253 252 253 240 224 194 224 196 175 177 169 169 169 167 165 168 175 181 180 175 181 177 191 188 192 192 191 193 189 188 178 171 161 156 172 164 163 159 153 156 98 111 125 159 152 112
203 246 246 249 252 251 252 258 232 185 188 177 175 175 174 171 172 168 168 172 177 176 175 177 173 184 189 185 198 183 194 191 187 191 168 165 132 160 169 156 152 146 160 142 151 107 146 133 171
235 245 249 249 252 242 250 255 218 212 188 177 178 182 175 176 177 174 172 170 170 173 174 173 174 179 181 177 185 197 182 202 193 168 159 162 169 150 172 165 150 148 156 151 139 145 140 162 147
233 212 235 243 227 247 243 254 217 195 209 193 191 183 184 187 184 183 180 172 168 173 173 173 175 178 179 180 181 189 186 185 210 168 170 158 163 163 162 166 153 152 158 162 158 141 157 143 149
194 190 200 198 197 237 213 221 208 204 256 253 229 193 185 200 192 177 177 176 172 170 173 175 177 179 180 182 184 183 183 182 185 179 175 175 169 166 142 160 159 165 162 163 159 160 158 151 154
221 196 191 217 212 248 196 208 234 253 227 252 255 191 187 194 214 179 177 176 174 173 173 175 177 180 182 185 185 186 187 189 188 189 193 199 184 178 182 161 157 165 169 164 163 171 151 179 160
229 217 233 228 221 250 242 253 253 249 255 228 216 242 185 181 194 195 185 181 180 177 177 177 178 178 180 183 186 190 193 195 198 206 203 203 218 206 275 186 174 169 170 173 172 169 166 159 165
225 238 227 233 222 223 244 251 233 248 247 247 232 190 184 183 186 203 200 194 190 180 180 181 184 184 185 186 189 190 193 195 197 201 208 215 222 222 203 211 193 184 183 183 185 182 174 174 172
237 235 225 231 199 215 240 265 279 245 257 230 228 234 198 205 185 190 200 223 193 181 182 185 187 189 188 187 187 189 190 192 194 198 200 203 206 211 220 219 211 205 201 200 197 197 188 191 183